Wind_Speed
7 8 7 7 6 5 5 5 5 6 6 6 6 6 6 6 5 4 3 2 1 1 1 2 2 3 4 4 4 4 5 5 4 4 4 4 4 4 4 4 3 4 4
9 9 9 9 8 8 7 7 7 7 8 8 8 8 8 7 7 6 5 4 3 2 1 1 1 2 3 3 3 4 4 3 3 3 3 3 3 3 3 3 3 3 3
11 10 10 10 10 9 9 9 9 9 9 10 10 9 9 9 8 8 7 6 5 4 3 1 0 0 1 2 2 2 2 2 2 2 2 2 2 2 3 3 3 3 3
12 12 12 12 11 11 11 11 11 11 11 11 11 11 11 11 10 9 9 7 7 6 4 3 2 2 1 1 1 1 1 2 2 2 1 1 1 1 2 2 2 3 3
13 14 14 13 13 13 13 13 13 13 12 13 13 13 13 13 12 11 11 10 9 7 6 5 4 3 3 3 3 2 2 2 2 2 2 2 2 2 1 1 2 2 2
13 13 14 15 15 14 14 15 14 14 14 15 15 15 15 15 14 13 13 12 11 10 9 7 6 5 5 5 4 4 4 3 3 3 2 3 2 2 2 2 2 2 2
12 13 14 15 16 16 16 16 16 16 16 16 17 17 17 17 16 15 14 14 13 12 11 9 8 8 7 7 6 6 6 5 5 4 4 4 3 3 3 3 3 3 3
13 14 15 16 16 17 17 17 18 18 18 18 18 19 19 19 18 17 16 16 15 14 13 11 10 10 9 9 8 8 8 7 6 6 6 5 4 4 5 5 4 4 4
15 16 16 16 16 18 18 18 19 20 20 20 20 20 20 20 20 19 18 17 17 16 15 14 13 12 12 11 10 10 10 9 8 8 7 7 6 6 6 6 6 6 6
16 17 17 17 18 19 19 20 20 21 21 21 22 22 22 22 21 21 20 19 18 18 17 16 15 14 14 13 12 12 11 10 10 9 9 9 8 8 8 8 8 8 8
17 17 18 18 19 20 21 21 21 22 23 23 24 24 24 24 23 23 22 21 20 20 19 18 17 17 16 15 14 13 13 12 12 11 10 10 10 10 9 9 9 9 10
18 18 18 19 20 21 22 23 23 23 25 25 25 26 26 26 25 24 24 23 22 22 20 20 19 19 18 17 16 16 15 14 14 13 12 13 12 12 11 11 11 12 12
19 19 19 20 20 21 22 24 24 24 25 25 26 26 27 27 27 25 25 24 24 23 22 22 21 20 19 18 18 17 17 16 16 15 15 16 15 14 13 13 13 14 13
19 19 20 21 21 21 23 24 23 24 25 26 26 27 28 28 28 26 25 25 25 25 24 23 22 21 21 20 19 18 18 18 17 17 16 17 16 16 16 15 15 15 15
20 21 21 21 22 22 22 23 25 25 26 25 25 27 27 28 28 28 27 27 27 26 25 24 23 23 22 21 19 19 19 19 18 17 17 17 18 18 18 17 17 17 17
21 20 20 21 22 22 23 24 25 26 26 26 27 28 28 28 29 28 28 29 28 27 26 25 24 23 23 22 21 20 20 20 19 19 18 19 19 18 18 19 19 19 18
21 21 20 20 21 22 22 24 25 25 25 25 26 26 26 27 27 28 28 27 27 28 27 26 25 25 23 22 21 21 21 21 21 20 20 20 20 20 20 20 20 20 19
21 21 21 21 21 22 22 23 24 24 24 25 26 27 26 27 27 27 28 26 25 25 26 26 25 25 24 22 22 22 22 22 21 22 22 21 21 21 21 21 20 20 20
21 22 22 22 23 22 22 22 23 24 24 25 26 26 26 27 27 26 25 25 24 23 24 24 25 25 24 23 23 23 22 22 22 23 23 22 22 22 22 22 21 22 22
21 21 21 21 22 23 23 24 24 24 25 25 25 25 25 25 25 25 25 24 24 24 24 23 23 23 24 23 23 23 23 23 23 24 24 24 24 24 24 23 23 23 23
20 20 21 21 22 23 24 24 25 25 25 25 25 25 25 25 24 24 24 24 24 24 23 23 22 23 23 23 24 24 24 24 24 24 25 25 25 25 26 25 24 24 25
20 20 21 22 23 24 24 25 25 24 25 24 23 23 23 23 23 23 23 23 23 23 23 23 23 23 22 23 24 24 24 24 24 24 25 26 26 26 26 26 26 25 25
21 21 22 23 24 24 25 25 24 24 23 22 22 22 22 22 22 22 23 23 23 23 23 22 23 23 23 23 24 25 25 24 24 24 25 26 26 27 27 27 27 26 26
22 22 22 23 23 24 24 23 23 22 21 21 21 22 22 22 22 23 22 22 23 23 23 23 24 24 24 23 24 25 25 25 25 25 26 26 27 27 27 27 27 27 27
22 22 22 22 23 23 23 22 21 21 21 20 21 21 21 21 21 21 22 22 23 23 23 24 24 24 25 24 24 24 25 25 25 25 25 26 27 27 27 28 28 28 28
22 22 23 23 23 23 22 22 21 21 21 21 21 21 20 21 21 22 22 23 23 23 24 25 25 25 25 25 25 25 25 25 25 25 25 26 27 27 28 28 28 29 28
Wind_Direction
268 266 260 251 246 240 237 236 241 245 239 234 232 231 227 226 223 219 216 217 201 156 108 82 69 64 61 59 61 59 59 59 54 49 50 48 45 43 41 43 43 40 34
270 269 265 260 254 250 246 243 244 244 241 239 237 236 236 234 231 230 231 233 228 211 179 112 62 51 53 57 61 57 53 51 46 41 43 43 42 40 41 41 41 43 31
270 268 265 263 260 255 251 250 247 245 244 244 241 240 239 238 238 238 239 240 238 233 222 213 230 332 24 37 43 47 42 34 28 24 25 39 44 41 39 34 33 31 20
268 267 265 264 263 260 255 252 251 249 249 248 243 240 239 239 239 241 241 241 242 241 239 243 251 265 285 315 340 352 352 352 351 352 353 4 18 23 24 19 14 10 5
267 267 266 265 262 261 258 254 252 251 249 249 246 242 241 241 241 241 241 242 245 246 248 252 256 260 265 270 280 292 300 306 313 317 325 320 323 333 344 350 348 344 347
272 271 268 266 264 261 260 257 255 253 252 250 248 245 243 243 244 244 244 245 246 247 250 253 257 259 262 264 267 276 282 283 294 301 308 299 300 306 304 305 316 320 315
272 271 269 271 269 264 259 257 255 254 252 250 249 248 245 245 245 246 247 247 249 249 250 253 257 261 264 266 267 271 276 280 290 299 296 292 282 280 283 285 289 287 290
273 273 271 270 269 266 261 257 255 253 252 251 249 248 247 246 247 248 249 249 250 252 254 256 257 261 265 268 268 270 274 278 282 287 288 285 281 279 276 276 276 276 277
274 275 272 271 268 262 259 258 255 253 252 251 249 248 247 247 249 250 250 251 252 254 256 258 259 261 265 268 268 269 271 275 277 278 279 280 282 279 275 273 269 270 271
275 277 275 274 270 262 259 259 256 253 253 254 251 249 248 247 249 251 251 252 253 256 257 258 259 262 265 267 268 268 271 273 274 275 275 280 280 277 275 272 265 266 268
277 276 275 275 269 264 261 259 259 256 254 255 253 250 249 249 249 251 252 251 253 256 257 258 260 262 264 266 268 269 271 273 274 272 274 277 279 277 275 273 267 263 266
279 278 278 276 271 267 263 261 260 260 257 255 254 252 251 252 251 251 252 251 252 255 256 258 259 262 264 267 268 269 270 272 275 272 276 277 275 275 273 271 269 266 266
281 282 283 280 274 270 265 260 257 258 258 257 255 256 255 254 252 254 254 253 253 254 256 257 258 261 264 266 267 267 269 270 272 273 275 276 275 274 272 271 269 268 268
283 284 284 280 273 271 268 261 258 260 261 258 256 255 256 256 256 255 253 251 252 255 256 257 257 260 262 262 264 266 269 271 273 271 272 275 275 274 273 273 271 267 265
285 283 282 280 278 275 270 267 265 265 264 261 260 257 257 256 256 254 252 252 253 256 257 257 257 258 261 262 265 267 269 271 273 272 271 273 275 275 272 273 274 270 267
281 277 278 279 278 276 273 270 268 266 264 263 264 261 260 259 258 258 257 256 257 256 257 260 261 262 262 262 263 266 268 269 272 273 273 273 275 276 275 273 273 271 267
279 275 275 276 275 276 274 272 273 271 268 268 267 267 265 262 260 260 259 259 258 257 257 259 262 263 262 262 263 264 268 270 270 273 273 273 273 274 274 275 275 272 267
278 276 274 275 278 278 276 275 275 275 273 272 270 269 267 264 263 260 258 259 261 260 259 261 263 264 262 262 263 265 267 270 271 272 273 273 272 273 273 275 274 272 268
277 275 274 277 278 280 279 279 277 275 273 272 270 272 268 266 265 261 259 260 262 263 264 267 266 265 265 265 265 265 267 269 270 271 272 273 272 272 273 274 274 272 270
274 273 276 279 280 281 281 281 279 276 274 274 273 272 270 267 266 262 262 263 265 267 267 268 270 268 267 266 266 266 267 267 267 270 271 272 273 273 273 275 273 273 272
275 276 277 280 280 282 282 281 283 280 277 277 274 270 269 266 267 265 263 264 266 268 268 269 270 269 269 268 268 269 269 269 268 269 270 271 272 273 273 273 274 272 271
280 280 280 282 281 282 284 283 282 280 276 274 273 271 269 267 266 265 265 267 268 270 271 270 270 271 270 270 270 270 271 272 271 270 270 272 273 273 273 275 275 273 271
282 283 282 283 284 284 283 282 282 281 278 274 271 268 267 266 265 266 268 269 270 271 272 273 272 273 273 271 271 272 273 273 273 273 272 272 273 274 275 274 276 276 274
283 283 282 283 284 284 284 282 280 280 277 274 270 265 264 265 268 270 271 269 269 269 270 271 272 272 274 275 274 275 276 276 273 272 273 274 275 276 277 276 276 275 275
284 285 285 285 285 285 285 284 282 281 277 276 273 269 267 269 272 273 272 273 272 272 272 272 273 273 274 276 276 276 277 277 276 275 274 275 276 278 278 277 278 277 276
285 285 287 288 289 288 288 285 284 283 282 278 275 272 273 274 276 275 274 274 273 274 274 273 273 273 275 276 276 277 276 276 277 277 276 276 276 278 279 278 278 278 277
Height
5905 5905 5906 5906 5906 5907 5907 5908 5908 5908 5908 5908 5908 5908 5908 5908 5908 5908 5908 5908 5907 5907 5907 5906 5906 5905 5905 5905 5904 5904 5904 5904 5904 5903 5903 5903 5903 5903 5903 5902 5902 5902 5902
5904 5904 5905 5905 5906 5906 5906 5907 5907 5907 5907 5908 5908 5908 5908 5908 5908 5908 5908 5908 5907 5907 5907 5906 5906 5906 5905 5905 5904 5904 5904 5904 5904 5904 5903 5903 5903 5903 5903 5903 5903 5902 5903
5903 5903 5904 5904 5904 5905 5905 5906 5906 5906 5907 5907 5907 5907 5907 5907 5907 5908 5907 5907 5907 5907 5906 5906 5906 5906 5905 5905 5905 5904 5904 5904 5904 5904 5903 5903 5903 5903 5903 5903 5903 5903 5903
5902 5902 5902 5903 5903 5903 5903 5904 5904 5905 5905 5906 5906 5906 5906 5906 5906 5906 5906 5906 5906 5906 5906 5906 5906 5905 5905 5905 5905 5904 5904 5904 5904 5904 5903 5903 5903 5903 5903 5903 5903 5903 5903
5900 5901 5901 5901 5901 5901 5902 5902 5902 5903 5903 5904 5904 5904 5904 5905 5905 5905 5905 5905 5905 5905 5905 5905 5905 5905 5905 5905 5904 5904 5904 5904 5903 5903 5903 5903 5903 5903 5903 5903 5903 5903 5903
5898 5898 5898 5899 5899 5899 5899 5900 5900 5900 5901 5901 5902 5902 5903 5903 5903 5903 5903 5904 5904 5904 5904 5904 5904 5904 5904 5904 5904 5903 5903 5903 5903 5903 5902 5902 5902 5902 5902 5903 5903 5903 5903
5896 5896 5896 5897 5897 5897 5897 5897 5897 5898 5898 5899 5899 5900 5901 5901 5901 5901 5902 5902 5902 5902 5902 5903 5903 5903 5903 5903 5903 5903 5902 5902 5902 5902 5903 5902 5902 5902 5902 5902 5902 5902 5902
5894 5894 5894 5894 5894 5894 5894 5894 5894 5895 5895 5896 5896 5897 5898 5899 5899 5899 5899 5900 5900 5900 5901 5901 5901 5902 5902 5902 5902 5902 5901 5901 5901 5902 5902 5901 5901 5901 5902 5902 5902 5902 5902
5891 5891 5891 5891 5891 5891 5891 5891 5891 5892 5892 5893 5893 5894 5895 5896 5896 5897 5897 5897 5898 5898 5899 5899 5900 5900 5900 5900 5900 5900 5900 5900 5900 5900 5900 5900 5900 5901 5901 5901 5901 5901 5901
5888 5888 5888 5888 5888 5888 5888 5888 5888 5888 5889 5889 5890 5891 5891 5892 5893 5894 5894 5895 5895 5896 5896 5897 5897 5898 5898 5898 5899 5899 5899 5899 5899 5898 5898 5898 5899 5899 5899 5900 5900 5900 5900
5885 5885 5885 5885 5885 5885 5885 5885 5885 5885 5885 5886 5886 5887 5887 5888 5889 5890 5891 5891 5892 5893 5893 5894 5895 5895 5896 5896 5896 5897 5897 5897 5897 5896 5896 5897 5898 5898 5898 5898 5898 5899 5899
5881 5881 5881 5881 5881 5880 5880 5880 5881 5881 5881 5881 5882 5883 5883 5884 5885 5886 5887 5888 5888 5889 5890 5891 5892 5892 5893 5894 5894 5894 5895 5895 5895 5894 5895 5895 5896 5896 5896 5896 5897 5897 5897
5878 5877 5878 5877 5877 5876 5876 5875 5876 5877 5877 5877 5878 5878 5879 5880 5881 5881 5882 5884 5885 5886 5886 5887 5888 5889 5890 5890 5891 5891 5892 5892 5892 5893 5893 5893 5894 5894 5894 5894 5894 5894 5895
5874 5874 5874 5873 5872 5872 5871 5870 5871 5872 5872 5872 5872 5873 5875 5875 5876 5877 5878 5879 5881 5882 5883 5884 5884 5885 5886 5886 5887 5888 5888 5889 5890 5890 5891 5891 5891 5891 5891 5891 5891 5891 5892
5870 5870 5870 5869 5867 5867 5867 5867 5866 5867 5867 5867 5868 5867 5869 5871 5872 5872 5874 5875 5876 5877 5878 5879 5879 5881 5881 5881 5883 5884 5885 5886 5886 5886 5887 5887 5887 5887 5888 5888 5888 5888 5888
5867 5866 5866 5866 5864 5863 5863 5863 5862 5862 5863 5864 5865 5864 5864 5865 5867 5868 5869 5870 5871 5872 5874 5875 5875 5877 5878 5878 5879 5880 5881 5882 5882 5882 5883 5884 5884 5884 5884 5884 5884 5885 5885
5863 5862 5862 5862 5860 5860 5859 5859 5858 5858 5858 5859 5860 5860 5860 5860 5861 5863 5864 5865 5866 5867 5869 5870 5871 5873 5873 5874 5874 5875 5877 5877 5878 5878 5879 5879 5880 5880 5880 5880 5880 5880 5880
5859 5859 5858 5858 5857 5856 5856 5855 5854 5854 5854 5854 5855 5855 5855 5856 5856 5857 5858 5860 5861 5862 5864 5865 5867 5868 5869 5870 5871 5872 5873 5873 5874 5874 5874 5875 5875 5875 5875 5875 5875 5876 5876
5855 5855 5854 5854 5853 5852 5852 5850 5850 5849 5850 5850 5850 5850 5850 5851 5852 5852 5853 5854 5855 5857 5858 5860 5861 5863 5864 5865 5866 5867 5868 5868 5868 5869 5870 5870 5870 5870 5871 5870 5870 5871 5871
5851 5851 5850 5850 5849 5848 5847 5846 5846 5845 5845 5845 5845 5845 5845 5846 5847 5847 5848 5850 5850 5851 5853 5854 5856 5857 5858 5859 5860 5861 5862 5863 5863 5864 5864 5864 5865 5865 5865 5865 5865 5866 5866
5847 5847 5846 5846 5845 5844 5843 5842 5841 5841 5840 5840 5840 5840 5840 5840 5841 5842 5843 5844 5845 5846 5847 5848 5850 5851 5852 5853 5854 5855 5856 5857 5858 5858 5859 5859 5859 5859 5860 5860 5860 5861 5861
5844 5843 5842 5841 5840 5839 5838 5837 5836 5836 5836 5835 5834 5835 5835 5835 5836 5837 5838 5839 5840 5842 5842 5843 5844 5845 5846 5847 5848 5849 5850 5852 5851 5852 5852 5853 5853 5854 5854 5854 5854 5854 5854
5840 5839 5838 5837 5836 5834 5833 5832 5831 5831 5831 5830 5829 5830 5830 5830 5831 5832 5833 5834 5835 5836 5837 5838 5839 5840 5840 5842 5842 5843 5844 5845 5845 5846 5846 5847 5847 5848 5848 5848 5848 5848 5849
5836 5835 5833 5832 5831 5830 5829 5828 5827 5826 5826 5825 5824 5825 5825 5825 5826 5826 5827 5828 5829 5831 5832 5833 5833 5834 5835 5835 5836 5837 5838 5838 5839 5840 5841 5841 5841 5841 5841 5842 5842 5842 5843
5831 5830 5829 5828 5826 5825 5824 5823 5822 5821 5821 5820 5820 5820 5820 5820 5820 5821 5821 5822 5824 5825 5826 5827 5827 5828 5828 5829 5830 5830 5831 5831 5832 5833 5834 5835 5835 5835 5835 5835 5835 5836 5836
5826 5826 5824 5823 5822 5821 5820 5819 5818 5817 5816 5815 5815 5815 5815 5815 5815 5816 5816 5817 5818 5818 5819 5820 5820 5821 5822 5823 5824 5824 5825 5825 5826 5826 5827 5828 5828 5828 5828 5828 5829 5829 5829